COSMOS 2251 DEB, 34058

Orbit data source: Space-Track

COSMOS 2251 DEB, 34058 is space debris in LEO originally from a launch on Wed, 16 Jun 1993 UTC launched from the Plesetsk Missile And Space Complex (PKMTR). The debris from Iridium 33, an American commercial communications satellite, has been tracked extensively since its accidental collision with the defunct Russian satellite Cosmos 2251 in 2009. This event, occurring at high speed in low Earth orbit (LEO), generated thousands of pieces of space debris, significantly increasing the risk of further collisions. The Iridium 33 debris cloud has impacted space traffic management and orbital debris mitigation strategies, making it a subject of ongoing study in space situational awareness.

Loading next visibility...
Identifier
34058, 1993-036JV
Orbit
LEO
Country
Flag of CISCIS
Related business
Manufacturer
Unknown
Mission
Spacecraft
Bus & Motor
Unknown
Mass
Unknown
Launch date (UTC)
1993-06-16 (33 years ago)
Launch vehicle
Unknown
Launch site
Plesetsk Missile And Space Complex (PKMTR)
Object type
Payload
Rocket body
Debris
Shape & HBR
Unknown shape, 0.1 m
Radar Cross Section
Small (<0.1 m²)

Expand to show TLE details & history
Last TLE update: 11 hours ago

TLE from 11 hours ago
0 COSMOS 2251 DEB
1 34058U 93036JV  26071.26962998  .00000962  00000-0  88585-3 0  9992
2 34058  73.9346  32.9810 0377006  10.9123 101.4243 13.56199957843562
Epoch: 2026-03-12T06:28Z
TLE epoch observation values (Epoch: 2026-03-12T06:28:16.030Z)
Latitude
59.3918°
Longitude
-82.975°
Altitude
1,124.74 km
Speed
7.264 km/s
True Right ascension
12h 16m 03s
True Declination
59° 14' 54"
Sunlit
Object was in full shadow at epoch
Visualization orbit readout
Latitude
Unknown
Longitude
Unknown
Altitude
Unknown
Speed
Unknown
Apparent Right ascension
Unknown
Apparent Declination
Unknown
Sunlit
N/A
Visualization observer readout
Local Sidereal Time
21:38:56
Azimuth
Unknown
Elevation
Unknown
Doppler factor
Unknown
Orbital elements
Apogee altitude
1,327.193 km
Perigee altitude
767.31 km
Semi-major axis
7,425.388 km
Eccentricity
0.0377
Inclination
73.9346°
RAAN
32.981°
Arg. of periapsis
10.9123°
True anomaly
105.61596°
Mean anomaly
101.4243°
Eccentric anomaly
103.52449°
Mean motion
3.39207 °/min
Orbital period
106.13 mins
BSTAR
0.00088585
Loading maneuver chart data...
Computing Atmospheric mass density...

Documentation

Showing up to 5 results
|